Windom, MN

6:04 PM CDT on June 27, 2017 (GMT -0500)
Windom Municipal

Weather History for KMWM - August, 2012

Change the Weather History Date:

Saturday, August 18, 2012

  Actual Average Record
Temperature  
Mean Temperature 60 °F -  
Max Temperature 73 °F 82 °F 98 °F (1988)
Min Temperature 46 °F 58 °F 40 °F (1950)
Degree Days  
Heating Degree Days 6    
Growing Degree Days 10 (Base 50)    
Moisture  
Dew Point 49 °F    
Average Humidity 71    
Maximum Humidity 93    
Minimum Humidity 41    
Precipitation  
Precipitation 0.00 in - - ()
Sea Level Pressure  
Sea Level Pressure 30.03 in    
Wind  
Wind Speed 3 mph (SW)    
Max Wind Speed 12 mph    
Max Gust Speed 16 mph    
Visibility 10 miles    
Events      
Averages and records for this station are not official NWS values.
T = Trace of Precipitation, MM = Missing Value Source: NWS Daily Summary

Daily Weather History Graph

Daily Weather History Graph

Search for Another Location

Airport or City:

Trip Planner

Search our weather history database for the weather conditions in past years. The results will help you decide how hot, cold, wet, or windy it might be!

Date:

Astronomy

Aug. 18, 2012 Rise Set
Actual Time 6:28 AM CDT 8:19 PM CDT
Civil Twilight 5:57 AM CDT 8:49 PM CDT
Nautical Twilight 5:19 AM CDT 9:27 PM CDT
Astronomical Twilight 4:38 AM CDT 10:08 PM CDT
Moon 7:42 AM CDT (8/18) 8:29 PM CDT (8/18)
Length of Visible Light 14h 52m
Length of Day
13h 50m
New Moon, 1% of the Moon is Illuminated
Aug 18
New Moon
Aug 24
First Quarter
Aug 31
Full
Sep 8
Last Quarter
Sep 15
New

Hourly Weather History & Observations

Time (CDT) Temp. Dew Point Humidity Pressure Visibility Wind Dir Wind Speed Gust Speed Precip Events Conditions
12:13 AM 51.8 °F 46.4 °F 82% 30.05 in 10.0 mi Calm Calm - N/A   Clear
12:32 AM 51.8 °F 46.4 °F 82% 30.05 in 10.0 mi Calm Calm - N/A   Clear
12:52 AM 48.2 °F 44.6 °F 87% 30.05 in 10.0 mi Calm Calm - N/A   Clear
1:13 AM 48.2 °F 46.4 °F 93% 30.04 in 10.0 mi Calm Calm - N/A   Clear
1:32 AM 48.2 °F 46.4 °F 93% 30.04 in 10.0 mi Calm Calm - N/A   Clear
1:52 AM 48.2 °F 46.4 °F 93% 30.03 in 10.0 mi Calm Calm - N/A   Clear
2:13 AM 46.4 °F 44.6 °F 93% 30.03 in 10.0 mi Calm Calm - N/A   Clear
2:32 AM 48.2 °F 44.6 °F 87% 30.03 in 10.0 mi Calm Calm - N/A   Clear
2:53 AM 46.4 °F 44.6 °F 93% 30.03 in 10.0 mi Calm Calm - N/A   Clear
3:12 AM 46.4 °F 44.6 °F 93% 30.03 in 10.0 mi Calm Calm - N/A   Clear
3:53 AM 46.4 °F 44.6 °F 93% 30.04 in 10.0 mi Calm Calm - N/A   Clear
4:12 AM 46.4 °F 44.6 °F 93% 30.05 in 10.0 mi Calm Calm - N/A   Scattered Clouds
4:32 AM 48.2 °F 44.6 °F 87% 30.05 in 10.0 mi Calm Calm - N/A   Scattered Clouds
4:52 AM 48.2 °F 44.6 °F 87% 30.05 in 10.0 mi Calm Calm - N/A   Clear
5:12 AM 48.2 °F 44.6 °F 87% 30.04 in 10.0 mi Calm Calm - N/A   Clear
5:33 AM 48.2 °F 44.6 °F 87% 30.04 in 10.0 mi Calm Calm - N/A   Clear
5:52 AM 48.2 °F 44.6 °F 87% 30.04 in 10.0 mi Calm Calm - N/A   Clear
6:12 AM 48.2 °F 46.4 °F 93% 30.03 in 10.0 mi Calm Calm - N/A   Clear
6:33 AM 48.2 °F 44.6 °F 87% 30.03 in 10.0 mi Calm Calm - N/A   Clear
6:52 AM 51.8 °F 48.2 °F 88% 30.02 in 10.0 mi Calm Calm - N/A   Scattered Clouds
7:12 AM 51.8 °F 48.2 °F 88% 30.02 in 10.0 mi Calm Calm - N/A   Mostly Cloudy
7:33 AM 51.8 °F 48.2 °F 88% 30.02 in 10.0 mi Calm Calm - N/A   Scattered Clouds
7:52 AM 53.6 °F 48.2 °F 82% 30.03 in 10.0 mi Calm Calm - N/A   Clear
8:12 AM 53.6 °F 48.2 °F 82% 30.04 in 10.0 mi West 3.5 mph - N/A   Clear
8:33 AM 53.6 °F 48.2 °F 82% 30.05 in 10.0 mi WSW 4.6 mph - N/A   Clear
8:52 AM 55.4 °F 50.0 °F 82% 30.05 in 10.0 mi WSW 4.6 mph - N/A   Clear
9:13 AM 57.2 °F 50.0 °F 77% 30.05 in 10.0 mi WSW 5.8 mph - N/A   Scattered Clouds
9:33 AM 59.0 °F 51.8 °F 77% 30.05 in 10.0 mi WSW 6.9 mph - N/A   Scattered Clouds
9:52 AM 60.8 °F 51.8 °F 72% 30.05 in 10.0 mi WSW 8.1 mph - N/A   Scattered Clouds
10:13 AM 60.8 °F 51.8 °F 72% 30.05 in 10.0 mi WSW 8.1 mph - N/A   Scattered Clouds
10:33 AM 60.8 °F 51.8 °F 72% 30.05 in 10.0 mi SW 10.4 mph - N/A   Scattered Clouds
10:52 AM 62.6 °F 53.6 °F 72% 30.05 in 10.0 mi SW 11.5 mph - N/A   Clear
11:13 AM 66.2 °F 53.6 °F 64% 30.06 in 10.0 mi WSW 10.4 mph - N/A   Clear
11:32 AM 66.2 °F 53.6 °F 64% 30.06 in 10.0 mi WSW 8.1 mph - N/A   Scattered Clouds
11:52 AM 66.2 °F 51.8 °F 60% 30.05 in 10.0 mi SW 9.2 mph - N/A   Scattered Clouds
12:13 PM 68.0 °F 51.8 °F 56% 30.05 in 10.0 mi West 10.4 mph - N/A   Scattered Clouds
12:32 PM 68.0 °F 51.8 °F 56% 30.04 in 10.0 mi SW 10.4 mph - N/A   Clear
12:52 PM 69.8 °F 51.8 °F 53% 30.04 in 10.0 mi SW 10.4 mph - N/A   Clear
1:13 PM 69.8 °F 51.8 °F 53% 30.04 in 10.0 mi SW 8.1 mph - N/A   Clear
1:32 PM 69.8 °F 51.8 °F 53% 30.04 in 10.0 mi WSW 8.1 mph - N/A   Clear
1:52 PM 71.6 °F 51.8 °F 50% 30.04 in 10.0 mi SW 5.8 mph 16.1 mph N/A   Clear
2:13 PM 71.6 °F 51.8 °F 50% 30.03 in 10.0 mi SSW 5.8 mph - N/A   Scattered Clouds
2:32 PM 69.8 °F 50.0 °F 49% 30.03 in 10.0 mi Calm Calm - N/A   Mostly Cloudy
2:52 PM 71.6 °F 48.2 °F 43% 30.03 in 10.0 mi WNW 5.8 mph - N/A   Scattered Clouds
3:13 PM 71.6 °F 48.2 °F 43% 30.02 in 10.0 mi South 3.5 mph - N/A   Clear
3:32 PM 73.4 °F 48.2 °F 41% 30.02 in 10.0 mi SSW 4.6 mph - N/A   Scattered Clouds
3:52 PM 71.6 °F 53.6 °F 53% 30.02 in 10.0 mi SSW 11.5 mph - N/A   Scattered Clouds
4:13 PM 71.6 °F 53.6 °F 53% 30.02 in 10.0 mi South 11.5 mph - N/A   Mostly Cloudy
4:32 PM 71.6 °F 51.8 °F 50% 30.01 in 10.0 mi SW 6.9 mph - N/A   Scattered Clouds
4:52 PM 69.8 °F 51.8 °F 53% 30.01 in 10.0 mi SW 4.6 mph - N/A   Scattered Clouds
5:13 PM 71.6 °F 51.8 °F 50% 30.00 in 10.0 mi SW 8.1 mph - N/A   Clear
5:32 PM 69.8 °F 50.0 °F 49% 30.00 in 10.0 mi SW 9.2 mph - N/A   Clear
5:52 PM 69.8 °F 50.0 °F 49% 30.00 in 10.0 mi SSW 8.1 mph - N/A   Clear
6:13 PM 69.8 °F 51.8 °F 53% 30.01 in 10.0 mi SSW 8.1 mph - N/A   Clear
6:32 PM 69.8 °F 51.8 °F 53% 30.01 in 10.0 mi SW 6.9 mph - N/A   Clear
6:52 PM 69.8 °F 48.2 °F 46% 30.02 in 10.0 mi SW 6.9 mph - N/A   Scattered Clouds
7:13 PM 69.8 °F 50.0 °F 49% 30.02 in 10.0 mi South 8.1 mph - N/A   Scattered Clouds
7:32 PM 68.0 °F 50.0 °F 52% 30.02 in 10.0 mi South 8.1 mph - N/A   Mostly Cloudy
7:53 PM 64.4 °F 50.0 °F 59% 30.02 in 10.0 mi South 6.9 mph - N/A   Scattered Clouds
8:13 PM 62.6 °F 50.0 °F 63% 30.02 in 10.0 mi South 6.9 mph - N/A   Clear
8:32 PM 60.8 °F 50.0 °F 68% 30.02 in 10.0 mi SSW 5.8 mph - N/A   Clear
8:53 PM 60.8 °F 50.0 °F 68% 30.02 in 10.0 mi SSW 4.6 mph - N/A   Clear
9:12 PM 59.0 °F 50.0 °F 72% 30.02 in 10.0 mi SSW 6.9 mph - N/A   Clear
9:33 PM 57.2 °F 51.8 °F 82% 30.03 in 10.0 mi SW 6.9 mph - N/A   Clear
9:53 PM 59.0 °F 51.8 °F 77% 30.03 in 10.0 mi SW 6.9 mph - N/A   Clear
10:12 PM 60.8 °F 53.6 °F 77% 30.03 in 10.0 mi SW 8.1 mph - N/A   Clear
10:33 PM 59.0 °F 51.8 °F 77% 30.03 in 10.0 mi SW 6.9 mph - N/A   Clear
10:53 PM 57.2 °F 51.8 °F 82% 30.04 in 10.0 mi West 5.8 mph - N/A   Clear
11:33 PM 55.4 °F 51.8 °F 88% 30.03 in 10.0 mi WSW 6.9 mph - N/A   Clear
11:53 PM 55.4 °F 51.8 °F 88% 30.03 in 10.0 mi WSW 5.8 mph - N/A   Clear